Flag Weather past 2 weeks in Biberach an der Riss, Baden-Württemberg, Germany

Now
54 °F

Partly sunny.


Feels Like: 54 °F
Forecast: 41 / 56 °F
Wind: 1 mph from West

Location: Laupheim Airport

Current Time: Oct 30, 2014 at 2:55:15 PM

Latest Report: Oct 30, 2014 at 2:20 PM


Visibility: N/A

Pressure: 30.27 "Hg

Humidity: 82%

Dew point: 48 °F

Location of Biberach an der RissLocation

Historic Weather in Biberach an der Riss — Graph

°F

Biberach an der Riss temperature yesterday

Maximum temperature yesterday: 57 °F (at 3:20 PM)
Minimum temperature yesterday: 37 °F (at 4:20 AM)
Average temperature yesterday: 46 °F

Past Weeks' High & Low Weather Summary

 TemperatureHumidityPressure
High70 °F (Oct 19, 3:20 PM)100% (Oct 16, 12:20 AM)30.33 "Hg (Oct 16, 12:20 AM)
Low36 °F (Oct 24, 8:20 AM)55% (Oct 21, 4:56 PM)29.68 "Hg (Oct 21, 7:20 PM)
Average50 °F88%30.11 "Hg
* Reported Oct 15 2:20 PM — Oct 30 1:20 PM, Biberach an der Riss, Weather by CustomWeather, © 2014

Note: Actual official high and low records may vary slightly from our data, if they occured in-between our weather recording intervals... More about our weather records

Advertising

Biberach an der Riss weather history for previous 24 hours

 ConditionsComfort  
Time TempWeatherWind HumidityBarometerVisibility
1:20 PM
Oct 30
52 °FPartly sunny.3 mph88%30.27 "HgN/A
12:20 PM50 °FOvercast.3 mph88%30.27 "HgN/A
11:20 AM48 °FOvercast.5 mph87%30.27 "HgN/A
10:20 AM46 °FOvercast.2 mph93%30.27 "Hg5 mi
10:02 AM46 °FOvercast.2 mph93%30.27 "Hg4 mi
9:20 AM46 °FDrizzle. Fog.6 mph93%30.27 "Hg2 mi
8:20 AM46 °FFog.2 mph93%30.24 "Hg2 mi
7:20 AM46 °FDrizzle. Fog.5 mph93%30.24 "Hg2 mi
6:20 AM45 °FDrizzle. Fog.5 mph100%30.21 "Hg1 mi
5:20 AM43 °FLight rain. Fog.No wind100%30.21 "Hg1 mi
4:20 AM43 °FLight rain. Fog.1 mph100%30.18 "Hg1 mi
3:20 AM43 °FLight rain. Fog.3 mph100%30.18 "Hg1 mi
2:20 AM41 °FFog.No wind100%30.18 "Hg0 mi
1:20 AM43 °FFog.6 mph100%30.18 "Hg1 mi
12:20 AM43 °FFog.3 mph100%30.18 "Hg2 mi
11:20 PM
Oct 29
43 °FFog.3 mph100%30.15 "Hg3 mi
10:20 PM45 °FPassing clouds.5 mph93%30.15 "Hg4 mi
9:20 PM45 °FPassing clouds.5 mph93%30.15 "Hg4 mi
8:20 PM46 °FPassing clouds.6 mph93%30.12 "Hg4 mi
7:20 PM48 °FPassing clouds.5 mph87%30.12 "HgN/A
6:20 PM48 °FPassing clouds.5 mph87%30.09 "Hg5 mi
5:20 PM52 °FPassing clouds.5 mph77%30.09 "Hg5 mi
4:20 PM55 °FPassing clouds.6 mph67%30.07 "HgN/A
3:20 PM57 °FPassing clouds.8 mph63%30.07 "HgN/A
2:20 PM55 °FPassing clouds.8 mph67%30.07 "HgN/A
Weather by CustomWeather, © 2014

See weather overviewHow to use our weather pages